Regional Weather Roundup
Issued by NWS

Home | Current Version | Previous Version | Graphics & Text | Print | Product List | Glossary On
Versions: 1 2 3 4 5 6 7 8 9 10 11 12 13 14 15 16 17 18 19 20 21 22 23 24 25 26 27 28 29 30 31 32 33 34 35 36 37 38 39 40 41 42 43 44 45 46 47 48 49 50
000
ASUS43 KMKX 192021
RWRWI

WISCONSIN REGIONAL WEATHER ROUNDUP
NATIONAL WEATHER SERVICE MILWAUKEE/SULLIVAN WI
300 PM CDT TUE SEP 19 2017

NOTE: "FAIR" INDICATES FEW OR NO CLOUDS BELOW 12,000 FEET WITH NO
SIGNIFICANT WEATHER AND/OR OBSTRUCTIONS TO VISIBILITY.

WIZ001-002-006>008-014>016-023>028-192100-
NORTHWEST WISCONSIN

CITY           SKY/WX    TMP DP  RH WIND       PRES   REMARKS
SUPERIOR ARPT  PTSUNNY   65  58  77 NE12G21   29.86F
ASHLAND        PTSUNNY   71  60  68 NE7       29.89F
HAYWARD        MOSUNNY   75  59  57 SE10G20   29.87F
SIREN          PTSUNNY   76  60  57 SE12      29.83F
CUMBERLAND     PTSUNNY   72  59  64 SE13G22   29.86F
RICE LAKE      PTSUNNY   76  60  57 SE14G21   29.88F
CHETEK         PTSUNNY   74  62  65 SE12G20   29.87F
LADYSMITH      MOSUNNY   77  57  50 SE12G17   29.92F
EAU CLAIRE     PTSUNNY   79  62  56 SE13G25   29.86F HX  80
MENOMONIE      SUNNY     76  62  62 SE16      29.86F
NEW RICHMOND   MOSUNNY   77  60  56 SE13G18   29.83F
OSCEOLA        SUNNY     78  62  58 SE10G18   29.84F HX  80
$$

WIZ003>005-009-010-017-018-192100-
NORTH CENTRAL WISCONSIN

CITY           SKY/WX    TMP DP  RH WIND       PRES   REMARKS
MANITOWISH WTR CLOUDY    72  57  59 SE7       29.95F
ARBOR VITAE    SUNNY     77  59  54 SE9G17    29.95F
WOODRUFF       SUNNY     77  59  54 SE9G17    29.95F
RHINELANDER    CLOUDY    76  56  49 S12G17    29.97F
EAGLE RIVER    MOSUNNY   71  53  51 SE12      29.96F
LAND O LAKES   SUNNY     74  53  48 SE9       29.98F
PHILLIPS       PTSUNNY   73  57  56 SE8G16    29.93S
TOMAHAWK         N/A     75  56  50 SE5       29.95F
MEDFORD        SUNNY     74  54  49 SE9       29.93F
MERRILL          N/A     75  55  50 SE15      29.95F
$$

WIZ029-030-035-036-043>047-192100-
CENTRAL WISCONSIN

CITY           SKY/WX    TMP DP  RH WIND       PRES   REMARKS
WAUSAU         SUNNY     76  54  46 SE13      29.93F
MOSINEE        SUNNY     75  54  46 SE9       29.96F
MARSHFIELD     SUNNY     77  51  40 SE15      29.92F
STEVENS POINT  SUNNY     75  53  46 SE10      29.95F
WAUPACA        SUNNY     79  55  43 SE9       29.95F HX  80
WAUTOMA        SUNNY     79  53  40 E8        29.93F
WISC RAPIDS    SUNNY     80  52  37 S12       29.94F HX  80
CAMP DOUGLAS   SUNNY     81  57  44 SE9       29.91F HX  81
$$

WIZ011>013-019>022-031-037>040-048>050-192100-
NORTHEAST WISCONSIN

CITY           SKY/WX    TMP DP  RH WIND       PRES   REMARKS
ANTIGO         SUNNY     71  57  61 SE10      29.98F
SHAWANO        MOSUNNY   75  61  61 SE10      29.97S
OCONTO         MOSUNNY   73  60  64 SE9       29.98F
STURGEON BAY   SUNNY     70  57  63 VRB5      30.00S
GREEN BAY      MOSUNNY   77  61  57 E12       29.96F
MANITOWOC      SUNNY     67  59  75 SE6       29.99F
APPLETON       MOSUNNY   75  57  53 SE12      29.95F
CLINTONVILLE   MOSUNNY   73  59  60 SE9       29.96S
OSHKOSH        SUNNY     74  62  66 E12       29.95F
$$

WIZ032>034-041-042-053>061-192100-
SOUTHWEST WISCONSIN

CITY           SKY/WX    TMP DP  RH WIND       PRES   REMARKS
LA CROSSE      PTSUNNY   80  64  58 SE12      29.87F HX  82
SPARTA         MOSUNNY   79  60  52 SE10      29.90F HX  80
VIROQUA        MOSUNNY   78  64  60 SE9       29.92S HX  80
BOSCOBEL       MOSUNNY   81  61  50 S8        29.89F HX  82
PRAIRIE DU CHI MOSUNNY   82  59  45 SE10      29.88F HX  82
PLATTEVILLE    PTSUNNY   79  64  59 SE8       29.92F HX  80
$$

WIZ056-057-062-063-064-067-068-192100-
SOUTH CENTRAL WISCONSIN

CITY           SKY/WX    TMP DP  RH WIND       PRES   REMARKS
REEDSBURG      SUNNY     79  58  49 S5        29.92S HX  80
BARABOO/DELLS  SUNNY     80  52  38 SE7       29.92F HX  80
LONE ROCK      PTSUNNY   79  64  60 SE12      29.90F HX  81
MINERAL POINT  PTSUNNY   79  64  61 E9        29.92F HX  81
MADISON        MOSUNNY   80  57  45 S8        29.92F HX  80
MIDDLETON      SUNNY     81  56  42 SE8       29.93S HX  81
WATERTOWN      SUNNY     79  61  53 E8        29.92F HX  80
MONROE         MOSUNNY   79  59  50 SE6       29.93S HX  80
JANESVILLE     MOSUNNY   81  63  54 E8        29.92F HX  82
$$

WIZ051-052-058>065-066-070>072-192100-
SOUTHEAST WISCONSIN

CITY           SKY/WX    TMP DP  RH WIND       PRES   REMARKS
MILWAUKEE      CLOUDY    69  65  86 E10       29.95F FOG
WAUKESHA       SUNNY     73  63  68 E14       29.96F
MILWAUKEE/TIMM CLOUDY    72  59  64 E6        29.97F
RACINE         CLOUDY    70  66  87 E9        29.98S FOG
BURLINGTON     SUNNY     78  65  65 E8        29.94F
KENOSHA        PTSUNNY   76  64  66 E9        29.96S
FOND DU LAC    SUNNY     78  56  46 E6        29.94F
SHEBOYGAN      MOSUNNY   71  62  73 E10       29.97F
WEST BEND        N/A     73  63  68 E7        29.97S
JUNEAU         SUNNY     78  58  50 E7        29.95S
$$

LSZ147-162-192100-
LAKE SUPERIOR

STATION/POSITION TIME  TEMP    WIND        PRES    WAVE
                       AIR SEA DIR/SP/G            HT/PER
                 (UTC) (F)     (DEG/KT/KT) (MB)    (FT/S)
W MID LAKE BUOY  1950   57 55   40/ 14/ 14 1013.6F   1/ 4
DEVILS ISLAND    2000   59      60/ 14/ 16 1012.7F
SAXON HARBOR     1940   64      10/  2/  5 1012.5F
$$

LMZ867-665-643>646-192100-
LAKE MICHIGAN

STATION/POSITION TIME  TEMP    WIND        PRES    WAVE
                       AIR SEA DIR/SP/G            HT/PER
                 (UTC) (F)     (DEG/KT/KT) (MB)    (FT/S)
S GREEN BAY BUOY 2000   70 68  110/  8/ 10 1015.1
N MID LAKE BUOY  1950   64 65   70/ 10/ 12 1016.3F   1/ 3
NORTHPORT PIER   1940   66      80/  5/  7 1015.6F
KEWAUNEE LAKESHO 1954   67      60/  3/  5 1014.9F
SHEBOYGAN LAKESH 2000   65      70/  6/  7 1014.9F
PORT WASHINGTON  1940   68      90/  4/  6 1015.6F
ATWATER BUOY     1909   67 68   30/  6/  8 1015.1R
MILWAUKEE LAKESH 2000   66      50/  6/  7   N/A
S MID LAKE BUOY  1950   67 69   40/  6/  6 1014.2F   1/ 4
KENOSHA   LAKESH 2000   68      80/  8/  9 1013.9
$$

TC  - TEMPERATURE IN CELSIUS
VSB - VISIBILITY IN STATUTE MILES
WCI - WIND CHILL INDEX
HX  - HEAT INDEX




USA.gov is the U.S. government's official web portal to all federal, state and local government web resources and services.